2015-09-22, 07:20:04,VALID,918.044,VALID,0,VALID,100.332,VALID,73.7046,VALID,19.3908,INVALID,360,INVALID,0,
2015-09-22, 07:21:04,VALID,918.053,VALID,0,VALID,100.347,VALID,78.3246,VALID,19.4103,VALID,162,VALID,0,
2015-09-22, 07:22:04,VALID,918.084,VALID,0,VALID,100.362,VALID,81.0106,VALID,19.4118,VALID,120,VALID,0,
2015-09-22, 07:23:04,VALID,918.113,VALID,0,VALID,100.362,VALID,78.9692,VALID,19.4313,VALID,120,VALID,0,
2015-09-22, 07:24:04,VALID,918.104,VALID,0,VALID,100.362,VALID,77.8948,VALID,19.4508,VALID,120,VALID,0,
2015-09-22, 07:25:04,VALID,918.107,VALID,0,VALID,100.37,VALID,85.4157,VALID,19.4703,VALID,120,VALID,0,
2015-09-22, 07:26:04,VALID,918.098,VALID,0,VALID,100.355,VALID,100.028,VALID,19.5093,VALID,120,VALID,0,
2015-09-22, 07:27:04,VALID,918.141,VALID,0,VALID,100.347,VALID,114.425,VALID,19.5483,VALID,120,VALID,0,
2015-09-22, 07:28:04,VALID,918.137,VALID,0,VALID,100.317,VALID,124.417,VALID,19.6263,VALID,120,VALID,0,
2015-09-22, 07:29:04,VALID,918.143,VALID,0,VALID,100.301,VALID,134.087,VALID,19.7238,VALID,120,VALID,0,
2015-09-22, 07:30:04,VALID,918.153,VALID,0,VALID,100.294,VALID,146.657,VALID,19.8018,VALID,120,VALID,0,
2015-09-22, 07:31:04,VALID,918.127,VALID,0,VALID,100.263,VALID,142.897,VALID,19.8798,VALID,120,VALID,0,
2015-09-22, 07:32:04,VALID,918.133,VALID,0,VALID,100.256,VALID,100.243,VALID,19.9383,VALID,120,VALID,0,
2015-09-22, 07:33:04,VALID,918.125,VALID,0,VALID,100.263,VALID,94.011,VALID,19.8993,VALID,125,VALID,0,
2015-09-22, 07:34:04,VALID,918.152,VALID,0,VALID,100.294,VALID,98.631,VALID,19.9188,VALID,125,VALID,0,
2015-09-22, 07:35:04,VALID,918.138,VALID,0,VALID,100.271,VALID,114.64,VALID,19.9188,VALID,122,VALID,0,
2015-09-22, 07:36:04,VALID,918.174,VALID,0,VALID,100.271,VALID,128.5,VALID,19.9368,VALID,129,VALID,0,
2015-09-22, 07:37:04,VALID,918.198,VALID,0,VALID,100.278,VALID,149.021,VALID,19.9368,VALID,130,VALID,0,
2015-09-22, 07:38:04,VALID,918.221,VALID,0,VALID,100.256,VALID,158.691,VALID,19.9758,VALID,130,VALID,0,
2015-09-22, 07:39:04,VALID,918.259,VALID,0,VALID,100.248,VALID,171.798,VALID,20.0538,VALID,131,VALID,0,
2015-09-22, 07:40:04,VALID,918.25,VALID,0,VALID,100.263,VALID,193.394,VALID,20.0538,VALID,146,VALID,0,
2015-09-22, 07:41:04,VALID,918.26,VALID,0,VALID,100.278,VALID,198.444,VALID,19.9563,VALID,146,VALID,0,
2015-09-22, 07:42:04,VALID,918.287,VALID,0,VALID,100.286,VALID,197.477,VALID,19.9563,VALID,154,VALID,0,
2015-09-22, 07:43:04,VALID,918.312,VALID,0,VALID,100.263,VALID,198.659,VALID,20.0133,VALID,149,VALID,0,
2015-09-22, 07:44:04,VALID,918.293,VALID,0,VALID,100.278,VALID,180.823,VALID,20.0749,VALID,143,VALID,0,
2015-09-22, 07:45:04,VALID,918.307,VALID,0,VALID,100.256,VALID,183.509,VALID,20.0733,VALID,143,VALID,0,
2015-09-22, 07:46:04,VALID,918.33,VALID,0,VALID,100.256,VALID,181.576,VALID,20.1318,VALID,147,VALID,0,
2015-09-22, 07:47:04,VALID,918.313,VALID,0,VALID,100.256,VALID,174.914,VALID,20.1123,VALID,179,VALID,0.0582031,
2015-09-22, 07:48:04,VALID,918.321,VALID,0,VALID,100.248,VALID,149.773,VALID,20.1708,VALID,138,VALID,0,
2015-09-22, 07:49:04,VALID,918.324,VALID,0,VALID,100.271,VALID,142.682,VALID,20.1708,VALID,143,VALID,0,
2015-09-22, 07:50:04,VALID,918.333,VALID,0,VALID,100.278,VALID,151.707,VALID,20.0928,VALID,149,VALID,0,
2015-09-22, 07:51:04,VALID,918.344,VALID,0,VALID,100.286,VALID,190.708,VALID,20.0343,VALID,141,VALID,0,
2015-09-22, 07:52:04,VALID,918.34,VALID,0,VALID,100.309,VALID,217.783,VALID,20.1334,VALID,130,VALID,0,
2015-09-22, 07:53:04,VALID,918.354,VALID,0,VALID,100.309,VALID,215.849,VALID,20.1513,VALID,138,VALID,0,
2015-09-22, 07:54:04,VALID,918.356,VALID,0,VALID,100.286,VALID,248.834,VALID,20.2098,VALID,130,VALID,0,
2015-09-22, 07:55:04,VALID,918.368,VALID,0,VALID,100.278,VALID,250.553,VALID,20.2489,VALID,155,VALID,0,
2015-09-22, 07:56:04,VALID,918.365,VALID,0,VALID,100.278,VALID,236.8,VALID,20.2879,VALID,136,VALID,0,
2015-09-22, 07:57:04,VALID,918.4,VALID,0,VALID,100.294,VALID,224.23,VALID,20.3269,VALID,149,VALID,0,
2015-09-22, 07:58:04,VALID,918.421,VALID,0,VALID,100.256,VALID,213.056,VALID,20.4439,VALID,148,VALID,0,
2015-09-22, 07:59:04,VALID,918.411,VALID,0,VALID,100.248,VALID,195.543,VALID,20.4829,VALID,168,VALID,0.0191406,
2015-09-22, 08:00:04,VALID,918.425,VALID,0,VALID,100.256,VALID,188.452,VALID,20.5009,VALID,170,VALID,0.0300781,
2015-09-22, 08:01:04,VALID,918.451,VALID,0,VALID,100.256,VALID,192.32,VALID,20.5219,VALID,184,VALID,1.18867,
2015-09-22, 08:02:04,VALID,918.486,VALID,0,VALID,100.309,VALID,178.03,VALID,20.4244,VALID,170,VALID,1.35742,
2015-09-22, 08:03:04,VALID,918.503,VALID,0,VALID,100.286,VALID,183.617,VALID,20.5024,VALID,183,VALID,1.2457,
2015-09-22, 08:04:04,VALID,918.501,VALID,0,VALID,100.286,VALID,171.369,VALID,20.4618,VALID,174,VALID,1.32539,
2015-09-22, 08:05:04,VALID,918.512,VALID,0,VALID,100.317,VALID,142.145,VALID,20.4618,VALID,163,VALID,1.20938,
2015-09-22, 08:06:04,VALID,918.49,VALID,0,VALID,100.339,VALID,140.103,VALID,20.4244,VALID,167,VALID,1.73984,
2015-09-22, 08:07:04,VALID,918.498,VALID,0,VALID,100.347,VALID,142.467,VALID,20.4423,VALID,165,VALID,0.681641,
2015-09-22, 08:08:04,VALID,918.506,VALID,0,VALID,100.347,VALID,140.855,VALID,20.4423,VALID,155,VALID,0.0167969,
2015-09-22, 08:09:04,VALID,918.448,VALID,0,VALID,100.355,VALID,135.161,VALID,20.4423,VALID,138,VALID,0.179297,
2015-09-22, 08:10:04,VALID,918.466,VALID,0,VALID,100.339,VALID,142.145,VALID,20.4813,VALID,186,VALID,0.71875,
2015-09-22, 08:11:04,VALID,918.459,VALID,0,VALID,100.332,VALID,140.426,VALID,20.4618,VALID,153,VALID,0.000390625,
2015-09-22, 08:12:04,VALID,918.455,VALID,0,VALID,100.37,VALID,148.161,VALID,20.4618,VALID,166,VALID,1.10898,
2015-09-22, 08:13:04,VALID,918.481,VALID,0,VALID,100.362,VALID,159.658,VALID,20.4813,VALID,157,VALID,0.897656,
2015-09-22, 08:14:04,VALID,918.479,VALID,0,VALID,100.355,VALID,190.923,VALID,20.5399,VALID,166,VALID,0.129297,
2015-09-22, 08:15:04,VALID,918.452,VALID,0,VALID,100.362,VALID,185.336,VALID,20.5399,VALID,175,VALID,1.07461,
2015-09-22, 08:16:04,VALID,918.465,VALID,0,VALID,100.355,VALID,201.452,VALID,20.5984,VALID,179,VALID,0,
2015-09-22, 08:17:04,VALID,918.467,VALID,0,VALID,100.339,VALID,169.757,VALID,20.6764,VALID,174,VALID,0,
2015-09-22, 08:18:04,VALID,918.46,VALID,0,VALID,100.339,VALID,161.054,VALID,20.6764,VALID,176,VALID,0.696094,
2015-09-22, 08:19:04,VALID,918.49,VALID,0,VALID,100.347,VALID,159.872,VALID,20.7349,VALID,159,VALID,0,
2015-09-22, 08:20:04,VALID,918.491,VALID,0,VALID,100.37,VALID,187.485,VALID,20.7349,VALID,176,VALID,0,
2015-09-22, 08:21:04,VALID,918.516,VALID,0,VALID,100.37,VALID,169.757,VALID,20.7349,VALID,162,VALID,0,
2015-09-22, 08:22:04,VALID,918.523,VALID,0,VALID,100.378,VALID,159.55,VALID,20.7934,VALID,160,VALID,0,
2015-09-22, 08:23:04,VALID,918.537,VALID,0,VALID,100.37,VALID,170.509,VALID,20.8519,VALID,139,VALID,0,
2015-09-22, 08:24:04,VALID,918.514,VALID,0,VALID,100.385,VALID,170.617,VALID,20.8129,VALID,164,VALID,0,
2015-09-22, 08:25:04,VALID,918.565,VALID,0,VALID,100.385,VALID,215.634,VALID,20.8519,VALID,172,VALID,0,
2015-09-22, 08:26:04,VALID,918.546,VALID,0,VALID,100.378,VALID,240.453,VALID,20.9495,VALID,162,VALID,0,
2015-09-22, 08:27:04,VALID,918.568,VALID,0,VALID,100.332,VALID,290.306,VALID,21.1055,VALID,161,VALID,0,
2015-09-22, 08:28:04,VALID,918.575,VALID,0,VALID,100.278,VALID,346.605,VALID,21.2421,VALID,162,VALID,0,
2015-09-22, 08:29:04,VALID,918.588,VALID,0,VALID,100.263,VALID,367.449,VALID,21.3185,VALID,160,VALID,0,
2015-09-22, 08:30:04,VALID,918.587,VALID,0,VALID,100.271,VALID,375.829,VALID,21.3591,VALID,170,VALID,0,
2015-09-22, 08:31:04,VALID,918.6,VALID,0,VALID,100.294,VALID,390.763,VALID,21.4567,VALID,157,VALID,0,
2015-09-22, 08:32:04,VALID,918.607,VALID,0,VALID,100.294,VALID,386.788,VALID,21.5932,VALID,181,VALID,0,
2015-09-22, 08:33:04,VALID,918.616,VALID,0,VALID,100.317,VALID,387.648,VALID,21.6534,VALID,170,VALID,0,
2015-09-22, 08:34:04,VALID,918.621,VALID,0,VALID,100.271,VALID,403.442,VALID,21.8876,VALID,176,VALID,0,
2015-09-22, 08:35:04,VALID,918.654,VALID,0,VALID,100.301,VALID,396.35,VALID,21.9249,VALID,196,VALID,0.407031,
2015-09-22, 08:36:04,VALID,918.649,VALID,0,VALID,100.355,VALID,408.061,VALID,21.9656,VALID,132,VALID,0,
2015-09-22, 08:37:04,VALID,918.692,VALID,0,VALID,100.454,VALID,407.309,VALID,21.9054,VALID,163,VALID,0,
2015-09-22, 08:38:04,VALID,918.671,VALID,0,VALID,100.499,VALID,413.863,VALID,21.9444,VALID,174,VALID,0,
2015-09-22, 08:39:04,VALID,918.701,VALID,0,VALID,100.446,VALID,373.573,VALID,22.1201,VALID,139,VALID,0,
2015-09-22, 08:40:04,VALID,918.704,VALID,0,VALID,100.477,VALID,423.103,VALID,22.2176,VALID,156,VALID,0,
2015-09-22, 08:41:04,VALID,918.674,VALID,0,VALID,100.522,VALID,418.268,VALID,22.2957,VALID,149,VALID,0,
2015-09-22, 08:42:04,VALID,918.696,VALID,0,VALID,100.53,VALID,419.987,VALID,22.4111,VALID,154,VALID,0,
2015-09-22, 08:43:04,VALID,918.696,VALID,0,VALID,100.591,VALID,360.573,VALID,22.4908,VALID,165,VALID,0,
2015-09-22, 08:44:04,VALID,918.683,VALID,0,VALID,100.606,VALID,359.176,VALID,22.6274,VALID,236,VALID,0,
2015-09-22, 08:45:04,VALID,918.686,VALID,0,VALID,100.721,VALID,354.019,VALID,22.6062,VALID,229,VALID,0,
2015-09-22, 08:46:04,VALID,918.675,VALID,0,VALID,100.736,VALID,403.334,VALID,22.7428,VALID,224,VALID,0,
2015-09-22, 08:47:04,VALID,918.669,VALID,0,VALID,100.728,VALID,433.418,VALID,22.8989,VALID,224,VALID,0,
2015-09-22, 08:48:04,VALID,918.69,VALID,0,VALID,100.987,VALID,435.459,VALID,22.8014,VALID,144,VALID,0,
2015-09-22, 08:49:04,VALID,918.67,VALID,0,VALID,101.071,VALID,443.517,VALID,22.8989,VALID,144,VALID,0,
2015-09-22, 08:50:04,VALID,918.704,VALID,0,VALID,101.239,VALID,449.534,VALID,22.9575,VALID,167,VALID,0,
2015-09-22, 08:51:04,VALID,918.694,VALID,0,VALID,101.475,VALID,451.683,VALID,22.9753,VALID,127,VALID,0,
2015-09-22, 08:52:04,VALID,918.692,VALID,0,VALID,101.635,VALID,458.774,VALID,23.016,VALID,123,VALID,0,
2015-09-22, 08:53:04,VALID,918.695,VALID,0,VALID,101.75,VALID,459.096,VALID,23.0941,VALID,190,VALID,0,
2015-09-22, 08:54:04,VALID,918.717,VALID,0,VALID,101.765,VALID,457.27,VALID,23.2307,VALID,190,VALID,0,
2015-09-22, 08:55:04,VALID,918.735,VALID,0,VALID,101.803,VALID,459.741,VALID,23.307,VALID,190,VALID,0,
2015-09-22, 08:56:04,VALID,918.747,VALID,0,VALID,101.704,VALID,466.295,VALID,23.3265,VALID,220,VALID,0,
2015-09-22, 08:57:04,VALID,918.751,VALID,0,VALID,101.338,VALID,470.592,VALID,23.3461,VALID,198,VALID,0,
2015-09-22, 08:58:04,VALID,918.776,VALID,0,VALID,100.759,VALID,474.353,VALID,23.3478,VALID,127,VALID,0,
2015-09-22, 08:59:04,VALID,918.763,VALID,0,VALID,100.225,VALID,469.088,VALID,23.3869,VALID,148,VALID,0,
2015-09-22, 09:00:04,VALID,918.763,VALID,0,VALID,99.3484,VALID,461.782,VALID,23.4259,VALID,167,VALID,0,
2015-09-22, 09:01:04,VALID,918.743,VALID,0,VALID,98.5555,VALID,452.112,VALID,23.465,VALID,117,VALID,0,
2015-09-22, 09:02:04,VALID,918.758,VALID,0,VALID,97.9609,VALID,468.443,VALID,23.543,VALID,121,VALID,0,
2015-09-22, 09:03:04,VALID,918.739,VALID,0,VALID,96.4362,VALID,476.501,VALID,23.5626,VALID,145,VALID,0,
2015-09-22, 09:04:04,VALID,918.738,VALID,0,VALID,96.2609,VALID,487.89,VALID,23.6797,VALID,129,VALID,0,
2015-09-22, 09:05:04,VALID,918.711,VALID,0,VALID,95.1174,VALID,495.948,VALID,23.7364,VALID,129,VALID,0,
2015-09-22, 09:06:04,VALID,918.688,VALID,0,VALID,92.3806,VALID,502.502,VALID,23.795,VALID,157,VALID,0,
2015-09-22, 09:07:04,VALID,918.722,VALID,0,VALID,86.8536,VALID,507.23,VALID,23.7755,VALID,141,VALID,0,
2015-09-22, 09:08:04,VALID,918.722,VALID,0,VALID,86.8917,VALID,510.56,VALID,23.834,VALID,196,VALID,0,
2015-09-22, 09:09:04,VALID,918.735,VALID,0,VALID,88.02,VALID,511.205,VALID,23.9316,VALID,184,VALID,0,
2015-09-22, 09:10:04,VALID,918.738,VALID,0,VALID,90.4213,VALID,515.503,VALID,24.0683,VALID,187,VALID,0,
2015-09-22, 09:11:04,VALID,918.774,VALID,0,VALID,85.2908,VALID,509.701,VALID,24.1659,VALID,148,VALID,0,
2015-09-22, 09:12:04,VALID,918.78,VALID,0,VALID,82.7293,VALID,513.139,VALID,24.1269,VALID,145,VALID,0,
2015-09-22, 09:13:04,VALID,918.784,VALID,0,VALID,84.9935,VALID,519.263,VALID,24.1836,VALID,124,VALID,0,
2015-09-22, 09:14:04,VALID,918.785,VALID,0,VALID,84.5742,VALID,497.13,VALID,24.3416,VALID,125,VALID,0,
2015-09-22, 09:15:04,VALID,918.799,VALID,0,VALID,82.0203,VALID,504.221,VALID,24.3788,VALID,182,VALID,0,
2015-09-22, 09:16:04,VALID,918.804,VALID,0,VALID,83.8652,VALID,519.585,VALID,24.4178,VALID,176,VALID,0,
2015-09-22, 09:17:04,VALID,918.807,VALID,0,VALID,82.9123,VALID,530.222,VALID,24.4783,VALID,176,VALID,0,
2015-09-22, 09:18:04,VALID,918.808,VALID,0,VALID,83.141,VALID,527.429,VALID,24.6326,VALID,176,VALID,0,
2015-09-22, 09:19:04,VALID,918.808,VALID,0,VALID,82.1576,VALID,531.941,VALID,24.8297,VALID,131,VALID,0,
2015-09-22, 09:20:04,VALID,918.805,VALID,0,VALID,78.1476,VALID,536.024,VALID,24.8902,VALID,134,VALID,0,
2015-09-22, 09:21:04,VALID,918.819,VALID,0,VALID,79.7638,VALID,533.875,VALID,24.8688,VALID,175,VALID,0,
2015-09-22, 09:22:04,VALID,918.786,VALID,0,VALID,78.9328,VALID,536.239,VALID,24.8474,VALID,172,VALID,0,
2015-09-22, 09:23:04,VALID,918.784,VALID,0,VALID,78.6584,VALID,551.281,VALID,24.8688,VALID,188,VALID,0,
2015-09-22, 09:24:04,VALID,918.78,VALID,0,VALID,79.436,VALID,553.214,VALID,24.8492,VALID,191,VALID,0,
2015-09-22, 09:25:04,VALID,918.789,VALID,0,VALID,79.0701,VALID,555.471,VALID,24.9469,VALID,162,VALID,0,
2015-09-22, 09:26:04,VALID,918.778,VALID,0,VALID,78.91,VALID,559.768,VALID,25.064,VALID,116,VALID,0,
2015-09-22, 09:27:04,VALID,918.762,VALID,0,VALID,78.8033,VALID,561.38,VALID,25.1422,VALID,114,VALID,0,
2015-09-22, 09:28:04,VALID,918.767,VALID,0,VALID,80.3965,VALID,566.967,VALID,25.2203,VALID,134,VALID,0,
2015-09-22, 09:29:04,VALID,918.777,VALID,0,VALID,77.8961,VALID,563.421,VALID,25.2788,VALID,146,VALID,0,
2015-09-22, 09:30:04,VALID,918.758,VALID,0,VALID,78.1553,VALID,573.199,VALID,25.3374,VALID,166,VALID,0,
2015-09-22, 09:31:04,VALID,918.753,VALID,0,VALID,78.0104,VALID,575.562,VALID,25.4741,VALID,166,VALID,0,
2015-09-22, 09:32:04,VALID,918.772,VALID,0,VALID,76.8059,VALID,574.703,VALID,25.5894,VALID,64,VALID,0,
2015-09-22, 09:33:04,VALID,918.767,VALID,0,VALID,75.5252,VALID,584.372,VALID,25.5913,VALID,131,VALID,0,
2015-09-22, 09:34:04,VALID,918.696,VALID,0,VALID,77.1566,VALID,587.273,VALID,25.6109,VALID,131,VALID,0,
2015-09-22, 09:35:04,VALID,918.712,VALID,0,VALID,76.1884,VALID,577.926,VALID,25.7671,VALID,131,VALID,0,
2015-09-22, 09:36:04,VALID,918.721,VALID,0,VALID,75.5176,VALID,566.322,VALID,25.98,VALID,131,VALID,0,
2015-09-22, 09:37:04,VALID,918.7,VALID,0,VALID,74.8848,VALID,565.355,VALID,26.1968,VALID,132,VALID,0,
2015-09-22, 09:38:04,VALID,918.706,VALID,0,VALID,75.4413,VALID,580.505,VALID,26.1948,VALID,132,VALID,0,
2015-09-22, 09:39:04,VALID,918.688,VALID,0,VALID,75.9826,VALID,572.984,VALID,26.273,VALID,18,VALID,0,
2015-09-22, 09:40:04,VALID,918.651,VALID,0,VALID,73.5583,VALID,620.688,VALID,26.3902,VALID,43,VALID,0,
2015-09-22, 09:41:04,VALID,918.695,VALID,0,VALID,72.918,VALID,616.82,VALID,26.4292,VALID,17,VALID,0,
2015-09-22, 09:42:04,VALID,918.677,VALID,0,VALID,73.383,VALID,588.563,VALID,26.4292,VALID,360,VALID,0,
2015-09-22, 09:43:04,VALID,918.668,VALID,0,VALID,71.4314,VALID,621.654,VALID,26.273,VALID,241,VALID,0,
2015-09-22, 09:44:04,VALID,918.646,VALID,0,VALID,73.3906,VALID,629.498,VALID,25.9214,VALID,241,VALID,0,
2015-09-22, 09:45:04,VALID,918.67,VALID,0,VALID,75.7844,VALID,616.39,VALID,25.7261,VALID,241,VALID,0,
2015-09-22, 09:46:04,VALID,918.658,VALID,0,VALID,76.6611,VALID,661.623,VALID,25.687,VALID,265,VALID,0,
2015-09-22, 09:47:04,VALID,918.669,VALID,0,VALID,75.609,VALID,562.884,VALID,25.687,VALID,261,VALID,0,
2015-09-22, 09:48:04,VALID,918.675,VALID,0,VALID,76.1351,VALID,452.22,VALID,25.5894,VALID,273,VALID,0,
2015-09-22, 09:49:04,VALID,918.669,VALID,0,VALID,74.9687,VALID,568.793,VALID,25.5484,VALID,264,VALID,0,
2015-09-22, 09:50:04,VALID,918.68,VALID,0,VALID,76.844,VALID,369.598,VALID,25.5308,VALID,274,VALID,0,
2015-09-22, 09:51:04,VALID,918.661,VALID,0,VALID,75.1974,VALID,401.937,VALID,25.5698,VALID,235,VALID,0,
2015-09-22, 09:52:04,VALID,918.66,VALID,0,VALID,75.6853,VALID,315.34,VALID,25.7046,VALID,235,VALID,0,
2015-09-22, 09:53:04,VALID,918.662,VALID,0,VALID,75.4032,VALID,282.463,VALID,25.607,VALID,241,VALID,0,
2015-09-22, 09:54:04,VALID,918.686,VALID,0,VALID,74.801,VALID,291.273,VALID,25.5503,VALID,281,VALID,0,
2015-09-22, 09:55:04,VALID,918.631,VALID,0,VALID,76.2951,VALID,309.645,VALID,25.5698,VALID,281,VALID,0,
2015-09-22, 09:56:04,VALID,918.653,VALID,0,VALID,75.7615,VALID,355.63,VALID,25.7066,VALID,280,VALID,0,
2015-09-22, 09:57:04,VALID,918.658,VALID,0,VALID,72.9637,VALID,315.877,VALID,25.8823,VALID,282,VALID,0,
2015-09-22, 09:58:04,VALID,918.632,VALID,0,VALID,71.1646,VALID,263.875,VALID,25.9975,VALID,3,VALID,0,
2015-09-22, 09:59:04,VALID,918.654,VALID,0,VALID,71.1951,VALID,280.959,VALID,26.0561,VALID,19,VALID,0,
2015-09-22, 10:00:04,VALID,918.651,VALID,0,VALID,72.5825,VALID,351.225,VALID,26.1558,VALID,19,VALID,0,
2015-09-22, 10:01:04,VALID,918.653,VALID,0,VALID,72.8112,VALID,304.058,VALID,26.1733,VALID,8,VALID,0,
2015-09-22, 10:02:04,VALID,918.672,VALID,0,VALID,72.8189,VALID,316.092,VALID,26.273,VALID,8,VALID,0,
2015-09-22, 10:03:04,VALID,918.667,VALID,0,VALID,71.378,VALID,369.06,VALID,26.1733,VALID,331,VALID,0,
2015-09-22, 10:04:04,VALID,918.651,VALID,0,VALID,73.8023,VALID,460.493,VALID,26.0952,VALID,331,VALID,0,
2015-09-22, 10:05:04,VALID,918.623,VALID,0,VALID,73.3906,VALID,483.593,VALID,26.1753,VALID,331,VALID,0,
2015-09-22, 10:06:04,VALID,918.654,VALID,0,VALID,72.6816,VALID,734.79,VALID,26.2339,VALID,331,VALID,0,
2015-09-22, 10:07:04,VALID,918.652,VALID,0,VALID,72.9561,VALID,528.396,VALID,26.2339,VALID,331,VALID,0,
2015-09-22, 10:08:04,VALID,918.645,VALID,0,VALID,72.2242,VALID,344.886,VALID,26.0776,VALID,328,VALID,0,
2015-09-22, 10:09:04,VALID,918.606,VALID,0,VALID,72.3157,VALID,509.271,VALID,26.019,VALID,3,VALID,0,
2015-09-22, 10:10:04,VALID,918.63,VALID,0,VALID,72.1709,VALID,724.368,VALID,26.0581,VALID,26,VALID,0,
2015-09-22, 10:11:04,VALID,918.65,VALID,0,VALID,70.9435,VALID,730.492,VALID,26.1362,VALID,290,VALID,0,
2015-09-22, 10:12:04,VALID,918.613,VALID,0,VALID,74.3283,VALID,725.658,VALID,26.2144,VALID,297,VALID,0,
2015-09-22, 10:13:04,VALID,918.62,VALID,0,VALID,73.4592,VALID,734.038,VALID,26.4488,VALID,10,VALID,0,
2015-09-22, 10:14:04,VALID,918.626,VALID,0,VALID,72.4911,VALID,732.641,VALID,26.4683,VALID,256,VALID,0,
2015-09-22, 10:15:04,VALID,918.58,VALID,0,VALID,72.3538,VALID,742.848,VALID,26.4878,VALID,307,VALID,0,
2015-09-22, 10:16:04,VALID,918.568,VALID,0,VALID,74.8162,VALID,750.691,VALID,26.6246,VALID,15,VALID,0,
2015-09-22, 10:17:04,VALID,918.559,VALID,0,VALID,73.9624,VALID,752.733,VALID,26.9372,VALID,13,VALID,0.395703,
2015-09-22, 10:18:04,VALID,918.536,VALID,0,VALID,71.9498,VALID,762.295,VALID,26.9567,VALID,5,VALID,1.33945,
2015-09-22, 10:19:04,VALID,918.576,VALID,0,VALID,74.7323,VALID,760.898,VALID,26.7223,VALID,2,VALID,0.0121094,
2015-09-22, 10:20:04,VALID,918.519,VALID,0,VALID,72.0032,VALID,577.604,VALID,26.7398,VALID,25,VALID,0.858594,
2015-09-22, 10:21:04,VALID,918.529,VALID,0,VALID,72.8799,VALID,372.821,VALID,26.6812,VALID,26,VALID,0.571094,
2015-09-22, 10:22:04,VALID,918.507,VALID,0,VALID,71.4314,VALID,343.167,VALID,26.5835,VALID,348,VALID,1.40664,
2015-09-22, 10:23:04,VALID,918.527,VALID,0,VALID,71.0426,VALID,325.009,VALID,26.31,VALID,330,VALID,0.997266,
2015-09-22, 10:24:04,VALID,918.54,VALID,0,VALID,73.3449,VALID,352.192,VALID,25.9409,VALID,335,VALID,0,
2015-09-22, 10:25:04,VALID,918.534,VALID,0,VALID,75.4413,VALID,403.442,VALID,25.7847,VALID,27,VALID,1.37969,
2015-09-22, 10:26:04,VALID,918.545,VALID,0,VALID,75.9063,VALID,460.385,VALID,25.7046,VALID,33,VALID,1.93867,
2015-09-22, 10:27:04,VALID,918.547,VALID,0,VALID,76.5925,VALID,498.419,VALID,25.648,VALID,1,VALID,0.471484,
2015-09-22, 10:28:04,VALID,918.531,VALID,0,VALID,77.2023,VALID,536.239,VALID,25.6655,VALID,5,VALID,1.91406,
2015-09-22, 10:29:04,VALID,918.563,VALID,0,VALID,76.0512,VALID,651.093,VALID,25.6675,VALID,351,VALID,0.009375,
2015-09-22, 10:30:04,VALID,918.566,VALID,0,VALID,76.844,VALID,709.112,VALID,25.646,VALID,19,VALID,1.22656,
2015-09-22, 10:31:04,VALID,918.567,VALID,0,VALID,77.0422,VALID,647.226,VALID,25.6675,VALID,1,VALID,0.289063,
2015-09-22, 10:32:04,VALID,918.575,VALID,0,VALID,78.3001,VALID,599.199,VALID,25.8413,VALID,7,VALID,0.176563,
2015-09-22, 10:33:04,VALID,918.582,VALID,0,VALID,76.783,VALID,488.535,VALID,25.9604,VALID,2,VALID,1.29297,
2015-09-22, 10:34:04,VALID,918.539,VALID,0,VALID,76.0893,VALID,443.732,VALID,25.9409,VALID,353,VALID,0.456641,
2015-09-22, 10:35:04,VALID,918.557,VALID,0,VALID,76.2494,VALID,410.748,VALID,25.9194,VALID,47,VALID,2.06875,
2015-09-22, 10:36:04,VALID,918.531,VALID,0,VALID,74.3054,VALID,384.532,VALID,26.0171,VALID,26,VALID,1.89688,
2015-09-22, 10:37:04,VALID,918.521,VALID,0,VALID,72.735,VALID,374.647,VALID,25.8022,VALID,25,VALID,1.46641,
2015-09-22, 10:38:04,VALID,918.541,VALID,0,VALID,76.0588,VALID,373.788,VALID,25.7261,VALID,27,VALID,1.37617,
2015-09-22, 10:39:04,VALID,918.528,VALID,0,VALID,74.6561,VALID,377.118,VALID,25.7241,VALID,12,VALID,1.59141,
2015-09-22, 10:40:04,VALID,918.525,VALID,0,VALID,76.6839,VALID,380.664,VALID,25.7651,VALID,38,VALID,0.675391,
2015-09-22, 10:41:04,VALID,918.499,VALID,0,VALID,72.7884,VALID,385.177,VALID,25.8804,VALID,36,VALID,1.61484,
2015-09-22, 10:42:04,VALID,918.465,VALID,0,VALID,74.557,VALID,389.582,VALID,26.0776,VALID,22,VALID,0.317578,
2015-09-22, 10:43:04,VALID,918.467,VALID,0,VALID,73.9319,VALID,391.73,VALID,26.1753,VALID,40,VALID,0.369141,
2015-09-22, 10:44:04,VALID,918.452,VALID,0,VALID,75.975,VALID,394.739,VALID,26.0561,VALID,6,VALID,1.52852,
2015-09-22, 10:45:04,VALID,918.44,VALID,0,VALID,76.3333,VALID,397.21,VALID,25.8237,VALID,357,VALID,0.591016,
2015-09-22, 10:46:04,VALID,918.415,VALID,0,VALID,78.384,VALID,397.21,VALID,25.7046,VALID,11,VALID,1.88867,
2015-09-22, 10:47:04,VALID,918.404,VALID,0,VALID,80.1526,VALID,394.309,VALID,25.7046,VALID,26,VALID,1.38281,
2015-09-22, 10:48:04,VALID,918.426,VALID,0,VALID,79.3216,VALID,394.846,VALID,25.7847,VALID,15,VALID,1.2,
2015-09-22, 10:49:04,VALID,918.387,VALID,0,VALID,77.5683,VALID,390.763,VALID,25.648,VALID,29,VALID,1.65469,
2015-09-22, 10:50:04,VALID,918.398,VALID,0,VALID,77.9571,VALID,386.251,VALID,25.5113,VALID,32,VALID,0.489453,
2015-09-22, 10:51:04,VALID,918.41,VALID,0,VALID,78.201,VALID,382.92,VALID,25.4331,VALID,5,VALID,0.283984,
2015-09-22, 10:52:04,VALID,918.397,VALID,0,VALID,78.7194,VALID,382.491,VALID,25.3922,VALID,34,VALID,0.461328,
2015-09-22, 10:53:04,VALID,918.412,VALID,0,VALID,79.2302,VALID,383.672,VALID,25.5679,VALID,22,VALID,0.0234375,
2015-09-22, 10:54:04,VALID,918.407,VALID,0,VALID,76.6611,VALID,386.143,VALID,25.5874,VALID,347,VALID,0.975391,
2015-09-22, 10:55:04,VALID,918.372,VALID,0,VALID,78.3077,VALID,388.077,VALID,25.648,VALID,18,VALID,0.153906,
2015-09-22, 10:56:04,VALID,918.355,VALID,0,VALID,77.6216,VALID,391.623,VALID,25.7066,VALID,354,VALID,0.0125,
2015-09-22, 10:57:04,VALID,918.342,VALID,0,VALID,76.6992,VALID,397.747,VALID,25.8022,VALID,346,VALID,0.467578,
2015-09-22, 10:58:04,VALID,918.353,VALID,0,VALID,76.6611,VALID,405.375,VALID,25.7651,VALID,328,VALID,1.38516,
2015-09-22, 10:59:04,VALID,918.282,VALID,0,VALID,79.1539,VALID,410.855,VALID,25.6675,VALID,50,VALID,1.82617,
2015-09-22, 11:00:04,VALID,918.269,VALID,0,VALID,79.4284,VALID,416.334,VALID,25.7261,VALID,355,VALID,1.83086,
2015-09-22, 11:01:04,VALID,918.246,VALID,0,VALID,78.1553,VALID,419.128,VALID,25.648,VALID,26,VALID,2.01445,
2015-09-22, 11:02:04,VALID,918.259,VALID,0,VALID,79.0853,VALID,421.707,VALID,25.5503,VALID,348,VALID,2.02461,
2015-09-22, 11:03:04,VALID,918.234,VALID,0,VALID,77.6292,VALID,428.26,VALID,25.5113,VALID,15,VALID,0.166406,
2015-09-22, 11:04:04,VALID,918.21,VALID,0,VALID,79.6799,VALID,434.814,VALID,25.5698,VALID,15,VALID,0.798047,